Weather History for KMKN - November, 2013

Change the Weather History Date:

Tuesday, November 26, 2013

  Actual Average (KSEP) Record (KSEP)
Temperature  
Mean Temperature 41 °F -  
Max Temperature 50 °F 62 °F 83 °F (1949)
Min Temperature 32 °F 40 °F 19 °F (1993)
Degree Days  
Heating Degree Days 24    
Moisture  
Dew Point 29 °F    
Average Humidity 70    
Maximum Humidity 96    
Minimum Humidity 36    
Precipitation  
Precipitation 0.00 in - - ()
Sea Level Pressure  
Sea Level Pressure 30.26 in    
Wind  
Wind Speed 14 mph (NNW)    
Max Wind Speed 28 mph    
Max Gust Speed 36 mph    
Visibility 10 miles    
Events Rain    
Averages and records for this station are not official NWS values.
T = Trace of Precipitation, MM = Missing Value Source: NWS Daily Summary

Daily Weather History Graph

Daily Weather History Graph

Search for Another Location

Airport or City:

Trip Planner

Search our weather history database for the weather conditions in past years. The results will help you decide how hot, cold, wet, or windy it might be!

Date:

Astronomy

Nov. 26, 2013 Rise Set
Actual Time 7:12 AM CST 5:30 PM CST
Civil Twilight 6:46 AM CST 5:56 PM CST
Nautical Twilight 6:16 AM CST 6:26 PM CST
Astronomical Twilight 5:47 AM CST 6:56 PM CST
Moon 12:40 AM CST (11/26) 1:17 PM CST (11/26)
Length of Visible Light 11h 10m
Length of Day
10h 17m
Last Quarter, 41% of the Moon is Illuminated
Nov 26
Last Quarter
Dec 2
New
Dec 9
First Quarter
Dec 17
Full
Dec 25
Last Quarter

Hourly Weather History & Observations

Time (CST) Temp. Windchill Dew Point Humidity Pressure Visibility Wind Dir Wind Speed Gust Speed Precip Events Conditions
12:15 AM 34.3 °F 26.5 °F 32.9 °F 94% 30.19 in 10.0 mi North 10.4 mph - N/A   Overcast
12:35 AM 34.0 °F 24.6 °F 32.2 °F 93% 30.19 in 10.0 mi North 13.8 mph - N/A   Light Drizzle
12:55 AM 34.2 °F 26.2 °F 32.0 °F 92% 30.18 in 10.0 mi North 10.4 mph - N/A   Overcast
1:15 AM 34.2 °F 24.4 °F 32.0 °F 92% 30.18 in 10.0 mi North 15.0 mph 18.4 mph N/A Rain Light Rain
1:35 AM 33.6 °F 24.1 °F 32.7 °F 96% 30.18 in 10.0 mi North 13.8 mph 17.3 mph N/A   Overcast
1:55 AM 34.0 °F 27.2 °F 32.9 °F 96% 30.19 in 10.0 mi North 8.1 mph - N/A   Overcast
2:15 AM 33.8 °F 26.4 °F 32.5 °F 95% 30.19 in 10.0 mi North 9.2 mph - N/A   Overcast
2:35 AM 34.0 °F 24.2 °F 32.5 °F 94% 30.18 in 10.0 mi North 15.0 mph - N/A   Overcast
2:55 AM 33.8 °F 24.3 °F 32.0 °F 93% 30.19 in 10.0 mi North 13.8 mph 18.4 mph N/A   Overcast
3:15 AM 33.8 °F 23.5 °F 31.1 °F 90% 30.20 in 10.0 mi North 16.1 mph 20.7 mph N/A   Overcast
3:35 AM 33.3 °F 23.7 °F 32.0 °F 95% 30.20 in 7.0 mi North 13.8 mph 23.0 mph N/A   Drizzle
3:55 AM 32.9 °F 23.7 °F 32.0 °F 96% 30.20 in 10.0 mi North 12.7 mph 21.9 mph N/A   Overcast
4:15 AM 32.9 °F 22.8 °F 32.0 °F 96% 30.21 in 7.0 mi North 15.0 mph 18.4 mph N/A   Overcast
4:35 AM 33.1 °F 23.0 °F 32.2 °F 96% 30.19 in 10.0 mi NNW 15.0 mph 19.6 mph N/A   Overcast
4:55 AM 33.1 °F 23.0 °F 32.0 °F 96% 30.19 in 10.0 mi NNW 15.0 mph 20.7 mph N/A   Overcast
5:15 AM 33.1 °F 23.0 °F 32.0 °F 96% 30.20 in 10.0 mi North 15.0 mph - N/A   Overcast
5:35 AM 33.1 °F 24.4 °F 32.0 °F 96% 30.20 in 10.0 mi NNW 11.5 mph 16.1 mph N/A   Overcast
5:55 AM 33.3 °F 25.1 °F 32.0 °F 95% 30.20 in 10.0 mi NNW 10.4 mph - N/A   Overcast
6:15 AM 33.3 °F 24.6 °F 32.0 °F 95% 30.22 in 10.0 mi North 11.5 mph - N/A   Overcast
6:35 AM 33.3 °F 24.6 °F 31.8 °F 94% 30.22 in 10.0 mi NNW 11.5 mph - N/A   Overcast
6:55 AM 33.4 °F 24.8 °F 31.8 °F 94% 30.22 in 10.0 mi NNW 11.5 mph - N/A   Overcast
7:15 AM 33.8 °F 24.8 °F 32.0 °F 93% 30.23 in 10.0 mi NNW 12.7 mph - N/A   Overcast
7:35 AM 34.0 °F 24.6 °F 32.0 °F 92% 30.24 in 10.0 mi NNW 13.8 mph 17.3 mph N/A   Overcast
7:55 AM 34.2 °F 25.2 °F 32.0 °F 92% 30.25 in 10.0 mi NNW 12.7 mph 16.1 mph N/A   Overcast
8:15 AM 34.7 °F 25.5 °F 32.0 °F 90% 30.26 in 10.0 mi NNW 13.8 mph - N/A   Overcast
8:35 AM 34.9 °F 26.6 °F 32.4 °F 91% 30.26 in 10.0 mi NNW 11.5 mph - N/A   Overcast
8:55 AM 34.9 °F 26.6 °F 32.5 °F 91% 30.27 in 7.0 mi NNW 11.5 mph 16.1 mph N/A   Overcast
9:15 AM 36.0 °F 27.1 °F 32.0 °F 86% 30.27 in 10.0 mi NNW 13.8 mph 19.6 mph N/A   Overcast
9:35 AM 36.9 °F 28.7 °F 32.0 °F 83% 30.27 in 10.0 mi NNW 12.7 mph 21.9 mph N/A   Overcast
9:55 AM 37.6 °F 28.8 °F 32.0 °F 80% 30.26 in 10.0 mi NNW 15.0 mph 21.9 mph N/A   Overcast
10:15 AM 38.7 °F 29.5 °F 31.6 °F 76% 30.26 in 10.0 mi NNW 17.3 mph 23.0 mph N/A   Overcast
10:35 AM 39.4 °F 32.3 °F 32.2 °F 75% 30.27 in 10.0 mi NNW 11.5 mph 20.7 mph N/A   Overcast
10:55 AM 41.2 °F 33.4 °F 32.2 °F 70% 30.27 in 10.0 mi North 15.0 mph - N/A   Overcast
11:15 AM 42.1 °F 33.1 °F 32.4 °F 68% 30.27 in 10.0 mi North 20.7 mph 28.8 mph N/A   Overcast
11:35 AM 42.8 °F 34.8 °F 32.2 °F 66% 30.26 in 10.0 mi NNW 17.3 mph 25.3 mph N/A   Overcast
11:55 AM 44.1 °F 36.2 °F 32.0 °F 63% 30.26 in 10.0 mi NNW 18.4 mph 26.5 mph N/A   Scattered Clouds
12:15 PM 45.7 °F 38.3 °F 32.2 °F 59% 30.25 in 10.0 mi NNW 18.4 mph 27.6 mph N/A   Clear
12:35 PM 46.6 °F - 31.5 °F 56% 30.24 in 10.0 mi NNW 20.7 mph 27.6 mph N/A   Clear
12:55 PM 47.5 °F - 30.6 °F 52% 30.24 in 10.0 mi North 24.2 mph 31.1 mph N/A   Clear
1:15 PM 48.0 °F - 30.6 °F 51% 30.23 in 10.0 mi North 20.7 mph 29.9 mph N/A   Clear
1:35 PM 48.4 °F - 29.5 °F 48% 30.22 in 10.0 mi NNW 24.2 mph 29.9 mph N/A   Clear
1:55 PM 48.7 °F - 28.8 °F 46% 30.22 in 10.0 mi NNW 24.2 mph 31.1 mph N/A   Clear
2:15 PM 49.8 °F - 28.6 °F 44% 30.22 in 10.0 mi NNW 21.9 mph 33.4 mph N/A   Clear
2:35 PM 50.0 °F - 27.3 °F 41% 30.22 in 10.0 mi North 25.3 mph 32.2 mph N/A   Clear
2:55 PM 50.4 °F - 27.0 °F 40% 30.22 in 10.0 mi North 26.5 mph 33.4 mph N/A   Clear
3:15 PM 50.2 °F - 26.6 °F 40% 30.23 in 10.0 mi NNW 21.9 mph 34.5 mph N/A   Clear
3:35 PM 49.6 °F - 25.3 °F 39% 30.23 in 10.0 mi North 24.2 mph 35.7 mph N/A   Clear
3:55 PM 49.8 °F - 26.1 °F 40% 30.23 in 10.0 mi North 17.3 mph 28.8 mph N/A   Clear
4:15 PM 49.6 °F - 23.4 °F 36% 30.24 in 10.0 mi NNW 27.6 mph 33.4 mph N/A   Clear
4:35 PM 49.1 °F - 23.0 °F 36% 30.24 in 10.0 mi NNW 24.2 mph 29.9 mph N/A   Clear
4:55 PM 48.0 °F - 23.0 °F 37% 30.25 in 10.0 mi North 18.4 mph 26.5 mph N/A   Clear
5:15 PM 46.9 °F - 22.1 °F 38% 30.26 in 10.0 mi North 19.6 mph 29.9 mph N/A   Clear
5:35 PM 45.9 °F 37.4 °F 21.6 °F 38% 30.27 in 10.0 mi North 24.2 mph 32.2 mph N/A   Clear
5:55 PM 44.8 °F 37.4 °F 22.1 °F 41% 30.28 in 10.0 mi North 17.3 mph 29.9 mph N/A   Clear
6:15 PM 43.7 °F 36.9 °F 23.4 °F 45% 30.30 in 10.0 mi North 13.8 mph 19.6 mph N/A   Clear
6:35 PM 43.0 °F 35.4 °F 23.0 °F 45% 30.31 in 10.0 mi North 16.1 mph 20.7 mph N/A   Clear
6:55 PM 42.6 °F 35.2 °F 23.4 °F 47% 30.32 in 10.0 mi North 15.0 mph 23.0 mph N/A   Clear
7:15 PM 42.1 °F 35.2 °F 23.9 °F 49% 30.32 in 10.0 mi NNW 12.7 mph - N/A   Clear
7:35 PM 41.4 °F 34.7 °F 24.8 °F 52% 30.33 in 10.0 mi NNW 11.5 mph - N/A   Clear
7:55 PM 40.8 °F 33.3 °F 25.5 °F 55% 30.33 in 10.0 mi NNW 13.8 mph - N/A   Clear
8:15 PM 41.0 °F 33.9 °F 25.7 °F 55% 30.34 in 10.0 mi NNW 12.7 mph - N/A   Clear
8:35 PM 40.6 °F 33.0 °F 26.4 °F 57% 30.34 in 10.0 mi NNW 13.8 mph - N/A   Clear
8:55 PM 39.9 °F 32.1 °F 27.0 °F 60% 30.35 in 10.0 mi NNW 13.8 mph - N/A   Clear
9:15 PM 39.7 °F 31.9 °F 27.1 °F 61% 30.35 in 10.0 mi NNW 13.8 mph - N/A   Clear
9:35 PM 39.2 °F 33.0 °F 27.3 °F 62% 30.36 in 10.0 mi NNW 9.2 mph - N/A   Clear
9:55 PM 38.8 °F 32.6 °F 27.5 °F 64% 30.36 in 10.0 mi NW 9.2 mph - N/A   Clear
10:15 PM 38.3 °F 32.5 °F 27.7 °F 66% 30.37 in 10.0 mi NW 8.1 mph - N/A   Clear
10:35 PM 38.3 °F 31.9 °F 27.9 °F 66% 30.37 in 10.0 mi NW 9.2 mph - N/A   Clear
10:55 PM 37.6 °F 31.6 °F 28.0 °F 68% 30.38 in 10.0 mi NNW 8.1 mph - N/A   Clear
11:15 PM 37.4 °F 31.4 °F 27.9 °F 68% 30.38 in 10.0 mi NNW 8.1 mph - N/A   Clear
11:35 PM 37.2 °F 31.2 °F 28.0 °F 69% 30.38 in 10.0 mi NNW 8.1 mph - N/A   Clear
11:55 PM 37.8 °F 30.7 °F 27.9 °F 67% 30.38 in 10.0 mi North 10.4 mph - N/A   Clear